Weather in Novosergeyevka

Russia / Amur Oblast     50°54′49″N   128°47′38″E
temp.,
°C
wind,
m/s
gust,
m/s
humid.,
%
clouds,
%
prec.,
mm/h
press.,
hPa
HPBL,
m
26 january, wed
wed2600:00−26nne2110061 0.0 10269
03:00−28n1110057 0.0 10269
06:00−29nnw1110075 0.0 10269
09:00−29nnw11100100 0.0 10279
12:00−19nw229699 0.0 1026175
15:00−17nw239287 0.0 1025238
18:00−23nnw1110099 0.0 10269
21:00−24nnw1110098 0.1 10279
27 january, thu
thu2700:00−27wnw11100100 0.0 10279
03:00−28nw2210045 0.0 102821
06:00−30nw2210048 0.0 102822
09:00−30nw2210025 0.0 102828
12:00−20nw35875 0.0 1026216
15:00−16nw268642 0.0 1025528
18:00−25wnw22997 0.0 10259
21:00−27nw111008 0.0 10249
28 january, fri
fri2800:00−28wnw2210036 0.0 102419
03:00−24nw3798100 0.0 1022121
06:00−25nw249914 0.0 102144
09:00−27nnw369931 0.0 102170
12:00−21nnw489210 0.0 1020266
15:00−17nnw39865 0.0 1019623
18:00−25nw229610 0.0 10199
21:00−28nw229986 0.0 101821
29 january, sat
sat2900:00−27nnw359913 0.0 101743
03:00−29nnw359916 0.0 101841
06:00−30nnw3410016 0.0 101831
09:00−29nw36999 0.0 101860
12:00−20nnw49865 0.0 1017369
15:00−17nnw498244 0.0 1017701
18:00−25nne11945 0.0 10189
21:00−28wsw119749 0.0 10199
30 january, sun
sun3000:00−27nw2310021 0.0 101928
03:00−25nnw359929 0.0 101954
06:00−27nnw349947 0.0 102042
09:00−25n2598100 0.0 102171
12:00−19nnw358899 0.0 1022228
15:00−18n358731 0.0 1022259
18:00−24nne22975 0.0 10249
21:00−27nnw111008 0.0 10259